TimeHST,TemperatureF,Dew PointF,Humidity,Sea Level PressureIn,VisibilityMPH,Wind Direction,Wind SpeedMPH,Gust SpeedMPH,PrecipitationIn,Events,Conditions,WindDirDegrees,DateUTC
12:08 AM,73.4,69.8,88,29.88,8.0,SSW,5.8,-,N/A,,Light Drizzle,200,2012-10-08 10:08:00
12:34 AM,73.4,69.8,88,29.87,8.0,SSE,3.5,-,N/A,,Mostly Cloudy,160,2012-10-08 10:34:00
12:55 AM,72.7,69.8,91,29.87,8.0,SE,3.5,-,0.02,,Mostly Cloudy,140,2012-10-08 10:55:00
1:55 AM,73.0,69.6,89,29.86,10.0,Variable,5.8,-,N/A,,Mostly Cloudy,0,2012-10-08 11:55:00
2:32 AM,73.4,69.8,88,29.86,10.0,South,9.2,-,N/A,,Light Drizzle,180,2012-10-08 12:32:00
2:41 AM,73.4,69.8,88,29.86,10.0,South,6.9,-,N/A,,Mostly Cloudy,190,2012-10-08 12:41:00
2:55 AM,72.9,69.3,88,29.85,10.0,South,4.6,-,0.00,,Mostly Cloudy,190,2012-10-08 12:55:00
3:19 AM,73.4,69.8,88,29.85,10.0,Variable,3.5,-,N/A,Rain,Light Rain,0,2012-10-08 13:19:00
3:29 AM,73.4,69.8,88,29.85,10.0,Variable,4.6,-,N/A,,Overcast,0,2012-10-08 13:29:00
3:48 AM,73.4,69.8,88,29.85,10.0,SSE,4.6,-,N/A,,Light Drizzle,160,2012-10-08 13:48:00
3:55 AM,72.7,69.4,90,29.85,10.0,SSE,3.5,-,0.00,,Light Drizzle,160,2012-10-08 13:55:00
3:57 AM,73.4,69.8,88,29.85,10.0,Calm,Calm,-,N/A,,Scattered Clouds,0,2012-10-08 13:57:00
4:55 AM,72.3,69.3,90,29.85,10.0,SE,3.5,-,0.00,,Scattered Clouds,140,2012-10-08 14:55:00
5:55 AM,71.8,69.4,92,29.87,10.0,Calm,Calm,-,N/A,,Clear,0,2012-10-08 15:55:00
6:55 AM,72.0,69.6,92,29.88,10.0,Variable,5.8,-,N/A,,Clear,0,2012-10-08 16:55:00
7:55 AM,74.8,70.5,86,29.89,10.0,SSE,5.8,-,N/A,,Clear,150,2012-10-08 17:55:00
8:46 AM,75.2,69.8,83,29.90,10.0,SSE,6.9,-,N/A,,Mostly Cloudy,150,2012-10-08 18:46:00
8:55 AM,75.9,69.6,81,29.91,10.0,SSE,5.8,-,N/A,,Mostly Cloudy,150,2012-10-08 18:55:00
9:25 AM,78.8,69.8,74,29.91,10.0,SSE,8.1,-,N/A,,Mostly Cloudy,160,2012-10-08 19:25:00
9:36 AM,78.8,69.8,74,29.91,10.0,SSE,9.2,-,N/A,,Overcast,160,2012-10-08 19:36:00
9:55 AM,79.5,69.6,72,29.92,10.0,South,10.4,-,N/A,,Mostly Cloudy,170,2012-10-08 19:55:00
10:55 AM,80.4,69.4,69,29.92,10.0,SSE,10.4,18.4,N/A,,Scattered Clouds,160,2012-10-08 20:55:00
11:55 AM,81.7,69.1,65,29.91,10.0,South,10.4,-,N/A,,Scattered Clouds,170,2012-10-08 21:55:00
12:55 PM,82.2,68.5,63,29.89,10.0,SSE,10.4,20.7,N/A,,Scattered Clouds,150,2012-10-08 22:55:00
1:55 PM,82.4,68.2,62,29.87,10.0,South,10.4,19.6,N/A,,Partly Cloudy,180,2012-10-08 23:55:00
2:55 PM,82.0,67.8,62,29.86,10.0,SSE,8.1,-,N/A,,Clear,160,2012-10-09 00:55:00
3:55 PM,81.0,68.5,66,29.86,10.0,SSE,11.5,18.4,N/A,,Clear,160,2012-10-09 01:55:00
4:55 PM,79.0,68.0,69,29.88,10.0,South,8.1,-,N/A,,Clear,180,2012-10-09 02:55:00
5:55 PM,76.3,68.7,77,29.90,10.0,South,9.2,-,N/A,,Partly Cloudy,180,2012-10-09 03:55:00
6:55 PM,74.5,68.7,82,29.92,10.0,South,6.9,-,N/A,,Clear,180,2012-10-09 04:55:00
7:55 PM,73.8,69.3,86,29.94,10.0,Variable,5.8,-,N/A,,Clear,0,2012-10-09 05:55:00
8:55 PM,72.9,69.3,88,29.95,9.0,Variable,3.5,-,N/A,,Clear,0,2012-10-09 06:55:00
9:46 PM,73.4,69.8,88,29.95,7.0,Variable,4.6,-,N/A,,Partly Cloudy,0,2012-10-09 07:46:00
9:55 PM,72.7,69.6,90,29.96,7.0,SSE,3.5,-,N/A,,Scattered Clouds,150,2012-10-09 07:55:00
9:58 PM,73.4,69.8,88,29.96,7.0,SE,3.5,-,N/A,,Mostly Cloudy,140,2012-10-09 07:58:00
10:00 PM,73.4,69.8,88,29.96,7.0,Calm,Calm,-,N/A,,Mostly Cloudy,0,2012-10-09 08:00:00
10:02 PM,73.4,69.8,88,29.96,7.0,Calm,Calm,-,N/A,,Mostly Cloudy,0,2012-10-09 08:02:00
10:07 PM,73.4,69.8,88,29.96,7.0,Calm,Calm,-,N/A,,Mostly Cloudy,0,2012-10-09 08:07:00
10:19 PM,71.6,69.8,94,29.96,7.0,SSE,3.5,-,N/A,,Mostly Cloudy,160,2012-10-09 08:19:00
10:20 PM,71.6,69.8,94,29.96,7.0,SSE,3.5,-,N/A,,Mostly Cloudy,150,2012-10-09 08:20:00
10:21 PM,71.6,69.8,94,29.96,7.0,SSE,3.5,-,N/A,,Mostly Cloudy,150,2012-10-09 08:21:00
10:23 PM,71.6,69.8,94,29.96,7.0,SSE,3.5,-,N/A,,Scattered Clouds,160,2012-10-09 08:23:00
10:53 PM,71.6,69.8,94,29.96,7.0,Calm,Calm,-,N/A,,Partly Cloudy,0,2012-10-09 08:53:00
10:55 PM,71.8,69.1,91,29.96,7.0,Calm,Calm,-,N/A,,Partly Cloudy,0,2012-10-09 08:55:00
11:16 PM,71.6,68.0,88,29.96,7.0,Calm,Calm,-,N/A,,Mostly Cloudy,0,2012-10-09 09:16:00
11:54 PM,71.6,68.0,88,29.95,6.0,Calm,Calm,-,N/A,,Scattered Clouds,0,2012-10-09 09:54:00
11:55 PM,71.2,68.9,92,29.95,6.0,Calm,Calm,-,N/A,,Scattered Clouds,0,2012-10-09 09:55:00